Time,TemperatureF,DewpointF,PressureIn,WindDirection,WindDirectionDegrees,WindSpeedMPH,WindSpeedGustMPH,Humidity,HourlyPrecipIn,Conditions,Clouds,dailyrainin,SoftwareType,DateUTC
2013-01-21 00:11:00,49.5,39.0,30.15,NNW,347,1.0,1.0,67,0.00,,,0.00,weatherlink.com 1.10,2013-01-21 06:11:00,
2013-01-21 00:26:00,49.3,39.0,30.15,NNW,346,1.0,1.0,67,0.00,,,0.00,weatherlink.com 1.10,2013-01-21 06:26:00,
2013-01-21 00:41:00,49.6,38.0,30.15,NNW,345,0.0,2.0,65,0.00,,,0.00,weatherlink.com 1.10,2013-01-21 06:41:00,
2013-01-21 00:56:00,48.9,38.0,30.15,NNW,346,0.0,1.0,67,0.00,,,0.00,weatherlink.com 1.10,2013-01-21 06:56:00,
2013-01-21 01:11:00,48.5,38.0,30.16,NNW,346,0.0,0.0,67,0.00,,,0.00,weatherlink.com 1.10,2013-01-21 07:11:00,
2013-01-21 01:26:00,47.9,38.0,30.16,NNW,345,0.0,0.0,69,0.00,,,0.00,weatherlink.com 1.10,2013-01-21 07:26:00,
2013-01-21 01:41:00,47.5,38.0,30.16,NNW,346,0.0,0.0,70,0.00,,,0.00,weatherlink.com 1.10,2013-01-21 07:41:00,
2013-01-21 01:56:00,46.9,38.0,30.16,NNW,346,0.0,0.0,71,0.00,,,0.00,weatherlink.com 1.10,2013-01-21 07:56:00,
2013-01-21 02:11:00,46.4,38.0,30.16,NNW,345,0.0,0.0,72,0.00,,,0.00,weatherlink.com 1.10,2013-01-21 08:11:00,
2013-01-21 02:26:00,46.8,39.0,30.16,NNW,346,1.0,1.0,73,0.00,,,0.00,weatherlink.com 1.10,2013-01-21 08:26:00,
2013-01-21 02:41:00,46.9,38.0,30.17,NNW,345,1.0,1.0,72,0.00,,,0.00,weatherlink.com 1.10,2013-01-21 08:41:00,
2013-01-21 02:56:00,47.9,40.0,30.17,NNW,330,1.0,3.0,73,0.00,,,0.00,weatherlink.com 1.10,2013-01-21 08:56:00,
2013-01-21 03:26:00,46.5,40.0,30.17,NNW,335,0.0,1.0,78,0.00,,,0.00,weatherlink.com 1.10,2013-01-21 09:26:00,
2013-01-21 04:11:00,46.6,41.0,30.18,North,350,3.0,6.0,81,0.00,,,0.00,weatherlink.com 1.10,2013-01-21 10:11:00,
2013-01-21 04:26:00,46.6,41.0,30.19,NW,316,7.0,10.0,81,0.00,,,0.00,weatherlink.com 1.10,2013-01-21 10:26:00,
2013-01-21 04:41:00,46.7,41.0,30.20,NNE,23,5.0,12.0,81,0.00,,,0.00,weatherlink.com 1.10,2013-01-21 10:41:00,
2013-01-21 04:56:00,46.0,41.0,30.20,NNE,20,13.0,15.0,82,0.00,,,0.00,weatherlink.com 1.10,2013-01-21 10:56:00,
2013-01-21 05:11:00,45.0,40.0,30.21,North,4,9.0,16.0,81,0.00,,,0.00,weatherlink.com 1.10,2013-01-21 11:11:00,
2013-01-21 05:26:00,44.1,38.0,30.21,North,11,4.0,13.0,78,0.00,,,0.00,weatherlink.com 1.10,2013-01-21 11:26:00,
2013-01-21 05:42:00,43.2,36.0,30.21,NE,43,6.0,11.0,76,0.00,,,0.00,weatherlink.com 1.10,2013-01-21 11:42:00,
2013-01-21 05:57:00,42.5,33.0,30.22,East,81,6.0,11.0,70,0.00,,,0.00,weatherlink.com 1.10,2013-01-21 11:57:00,
2013-01-21 06:12:00,42.0,32.0,30.23,North,359,5.0,11.0,69,0.00,,,0.00,weatherlink.com 1.10,2013-01-21 12:12:00,
2013-01-21 06:27:00,41.6,33.0,30.24,North,5,3.0,9.0,71,0.00,,,0.00,weatherlink.com 1.10,2013-01-21 12:27:00,
2013-01-21 06:42:00,41.2,33.0,30.25,NNW,340,4.0,6.0,72,0.00,,,0.00,weatherlink.com 1.10,2013-01-21 12:42:00,
2013-01-21 06:57:00,40.9,32.0,30.26,NE,41,4.0,6.0,71,0.00,,,0.00,weatherlink.com 1.10,2013-01-21 12:57:00,
2013-01-21 07:12:00,40.7,31.0,30.26,North,9,7.0,9.0,68,0.00,,,0.00,weatherlink.com 1.10,2013-01-21 13:12:00,
2013-01-21 07:27:00,40.5,30.0,30.27,NNE,15,5.0,9.0,66,0.00,,,0.00,weatherlink.com 1.10,2013-01-21 13:27:00,
2013-01-21 07:42:00,40.2,29.0,30.28,NNW,338,3.0,8.0,65,0.00,,,0.00,weatherlink.com 1.10,2013-01-21 13:42:00,
2013-01-21 07:57:00,40.3,27.0,30.29,NNW,345,3.0,12.0,60,0.00,,,0.00,weatherlink.com 1.10,2013-01-21 13:57:00,
2013-01-21 08:12:00,40.7,28.0,30.29,NW,307,4.0,11.0,61,0.00,,,0.00,weatherlink.com 1.10,2013-01-21 14:12:00,
2013-01-21 08:27:00,41.0,27.0,30.29,NE,37,4.0,10.0,58,0.00,,,0.00,weatherlink.com 1.10,2013-01-21 14:27:00,
2013-01-21 08:42:00,41.0,26.0,30.29,NE,41,6.0,14.0,56,0.00,,,0.00,weatherlink.com 1.10,2013-01-21 14:42:00,
2013-01-21 08:57:00,41.3,26.0,30.30,East,100,4.0,11.0,55,0.00,,,0.00,weatherlink.com 1.10,2013-01-21 14:57:00,
2013-01-21 09:12:00,41.7,26.0,30.30,NNW,335,9.0,17.0,54,0.00,,,0.00,weatherlink.com 1.10,2013-01-21 15:12:00,
2013-01-21 09:27:00,42.2,26.0,30.31,North,352,11.0,13.0,54,0.00,,,0.00,weatherlink.com 1.10,2013-01-21 15:27:00,
2013-01-21 09:42:00,42.6,26.0,30.32,NNW,344,8.0,13.0,52,0.00,,,0.00,weatherlink.com 1.10,2013-01-21 15:42:00,
2013-01-21 09:57:00,43.6,26.0,30.32,NNE,16,9.0,11.0,51,0.00,,,0.00,weatherlink.com 1.10,2013-01-21 15:57:00,
2013-01-21 10:12:00,43.6,26.0,30.33,North,9,6.0,13.0,50,0.00,,,0.00,weatherlink.com 1.10,2013-01-21 16:12:00,
2013-01-21 10:27:00,44.3,26.0,30.33,NNE,30,3.0,10.0,49,0.00,,,0.00,weatherlink.com 1.10,2013-01-21 16:27:00,
2013-01-21 10:42:00,44.5,26.0,30.33,North,4,4.0,11.0,49,0.00,,,0.00,weatherlink.com 1.10,2013-01-21 16:42:00,
2013-01-21 10:57:00,45.5,27.0,30.34,North,1,7.0,10.0,48,0.00,,,0.00,weatherlink.com 1.10,2013-01-21 16:57:00,
2013-01-21 11:12:00,46.0,27.0,30.34,NNE,20,9.0,15.0,47,0.00,,,0.00,weatherlink.com 1.10,2013-01-21 17:12:00,
2013-01-21 11:27:00,46.1,27.0,30.33,NW,325,8.0,11.0,47,0.00,,,0.00,weatherlink.com 1.10,2013-01-21 17:27:00,
2013-01-21 11:42:00,47.2,28.0,30.33,NNW,337,6.0,10.0,47,0.00,,,0.00,weatherlink.com 1.10,2013-01-21 17:42:00,
2013-01-21 11:57:00,47.1,28.0,30.32,NNW,331,5.0,11.0,47,0.00,,,0.00,weatherlink.com 1.10,2013-01-21 17:57:00,
2013-01-21 12:12:00,47.9,28.0,30.32,NNW,335,4.0,12.0,47,0.00,,,0.00,weatherlink.com 1.10,2013-01-21 18:12:00,
2013-01-21 12:27:00,48.6,28.0,30.32,NE,38,3.0,9.0,46,0.00,,,0.00,weatherlink.com 1.10,2013-01-21 18:27:00,
2013-01-21 12:42:00,49.1,28.0,30.31,NW,318,7.0,10.0,45,0.00,,,0.00,weatherlink.com 1.10,2013-01-21 18:42:00,
2013-01-21 12:57:00,49.6,29.0,30.30,North,350,9.0,12.0,45,0.00,,,0.00,weatherlink.com 1.10,2013-01-21 18:57:00,
2013-01-21 13:12:00,49.9,29.0,30.29,NW,309,3.0,11.0,45,0.00,,,0.00,weatherlink.com 1.10,2013-01-21 19:12:00,
2013-01-21 13:27:00,50.5,30.0,30.29,North,1,6.0,11.0,45,0.00,,,0.00,weatherlink.com 1.10,2013-01-21 19:27:00,
2013-01-21 13:42:00,51.2,30.0,30.28,NNW,342,3.0,9.0,45,0.00,,,0.00,weatherlink.com 1.10,2013-01-21 19:42:00,
2013-01-21 13:58:00,51.9,32.0,30.28,North,352,5.0,10.0,46,0.00,,,0.00,weatherlink.com 1.10,2013-01-21 19:58:00,
2013-01-21 14:13:00,53.0,31.0,30.28,North,353,4.0,11.0,43,0.00,,,0.00,weatherlink.com 1.10,2013-01-21 20:13:00,
2013-01-21 14:28:00,53.3,31.0,30.28,NNE,18,8.0,8.0,43,0.00,,,0.00,weatherlink.com 1.10,2013-01-21 20:28:00,
2013-01-21 14:43:00,53.4,31.0,30.27,NNW,336,6.0,9.0,43,0.00,,,0.00,weatherlink.com 1.10,2013-01-21 20:43:00,
2013-01-21 14:58:00,53.9,32.0,30.27,NNW,345,5.0,9.0,43,0.00,,,0.00,weatherlink.com 1.10,2013-01-21 20:58:00,
2013-01-21 15:13:00,54.3,32.0,30.27,North,355,3.0,8.0,43,0.00,,,0.00,weatherlink.com 1.10,2013-01-21 21:13:00,
2013-01-21 15:28:00,54.5,32.0,30.27,ESE,117,5.0,11.0,43,0.00,,,0.00,weatherlink.com 1.10,2013-01-21 21:28:00,
2013-01-21 15:43:00,55.2,33.0,30.26,ENE,67,5.0,7.0,43,0.00,,,0.00,weatherlink.com 1.10,2013-01-21 21:43:00,
2013-01-21 15:58:00,55.1,32.0,30.26,ENE,72,5.0,9.0,42,0.00,,,0.00,weatherlink.com 1.10,2013-01-21 21:58:00,
2013-01-21 16:13:00,55.3,32.0,30.26,NE,56,4.0,7.0,42,0.00,,,0.00,weatherlink.com 1.10,2013-01-21 22:13:00,
2013-01-21 16:28:00,55.3,33.0,30.26,NNE,18,6.0,8.0,43,0.00,,,0.00,weatherlink.com 1.10,2013-01-21 22:28:00,
2013-01-21 16:43:00,55.3,33.0,30.26,NNW,347,4.0,7.0,43,0.00,,,0.00,weatherlink.com 1.10,2013-01-21 22:43:00,
2013-01-21 16:58:00,55.4,32.0,30.26,North,352,1.0,6.0,42,0.00,,,0.00,weatherlink.com 1.10,2013-01-21 22:58:00,
2013-01-21 17:13:00,55.0,33.0,30.25,North,4,2.0,4.0,43,0.00,,,0.00,weatherlink.com 1.10,2013-01-21 23:13:00,
2013-01-21 17:28:00,54.7,32.0,30.25,NNW,342,1.0,4.0,43,0.00,,,0.00,weatherlink.com 1.10,2013-01-21 23:28:00,
2013-01-21 17:43:00,53.8,32.0,30.25,NNE,15,0.0,4.0,44,0.00,,,0.00,weatherlink.com 1.10,2013-01-21 23:43:00,
2013-01-21 17:58:00,52.7,32.0,30.25,NNE,18,0.0,2.0,46,0.00,,,0.00,weatherlink.com 1.10,2013-01-21 23:58:00,
2013-01-21 18:13:00,51.7,32.0,30.25,North,3,1.0,3.0,47,0.00,,,0.00,weatherlink.com 1.10,2013-01-22 00:13:00,
2013-01-21 18:28:00,51.1,32.0,30.26,NNE,28,0.0,0.0,48,0.00,,,0.00,weatherlink.com 1.10,2013-01-22 00:28:00,
2013-01-21 18:43:00,50.5,32.0,30.26,North,5,0.0,1.0,49,0.00,,,0.00,weatherlink.com 1.10,2013-01-22 00:43:00,
2013-01-21 18:58:00,50.1,31.0,30.26,North,11,0.0,2.0,49,0.00,,,0.00,weatherlink.com 1.10,2013-01-22 00:58:00,
2013-01-21 19:13:00,49.1,31.0,30.26,North,11,0.0,0.0,51,0.00,,,0.00,weatherlink.com 1.10,2013-01-22 01:13:00,
2013-01-21 19:28:00,48.7,32.0,30.27,North,11,1.0,1.0,52,0.00,,,0.00,weatherlink.com 1.10,2013-01-22 01:28:00,
2013-01-21 19:43:00,48.7,31.0,30.27,NNW,343,0.0,1.0,51,0.00,,,0.00,weatherlink.com 1.10,2013-01-22 01:43:00,
2013-01-21 19:58:00,48.5,30.0,30.27,North,359,1.0,2.0,50,0.00,,,0.00,weatherlink.com 1.10,2013-01-22 01:58:00,
2013-01-21 20:13:00,48.5,30.0,30.27,North,349,0.0,1.0,50,0.00,,,0.00,weatherlink.com 1.10,2013-01-22 02:13:00,
2013-01-21 20:28:00,48.4,31.0,30.28,NNW,330,1.0,2.0,51,0.00,,,0.00,weatherlink.com 1.10,2013-01-22 02:28:00,
2013-01-21 20:43:00,48.3,30.0,30.28,NW,326,2.0,4.0,50,0.00,,,0.00,weatherlink.com 1.10,2013-01-22 02:43:00,
2013-01-21 20:58:00,48.0,30.0,30.28,North,352,4.0,5.0,50,0.00,,,0.00,weatherlink.com 1.10,2013-01-22 02:58:00,
2013-01-21 21:13:00,47.8,29.0,30.29,NW,323,3.0,4.0,49,0.00,,,0.00,weatherlink.com 1.10,2013-01-22 03:13:00,
2013-01-21 21:28:00,47.0,29.0,30.29,North,6,1.0,3.0,50,0.00,,,0.00,weatherlink.com 1.10,2013-01-22 03:28:00,
2013-01-21 21:43:00,46.5,29.0,30.29,NNE,29,2.0,3.0,50,0.00,,,0.00,weatherlink.com 1.10,2013-01-22 03:43:00,
2013-01-21 21:58:00,46.4,27.0,30.29,NE,53,1.0,5.0,48,0.00,,,0.00,weatherlink.com 1.10,2013-01-22 03:58:00,
2013-01-21 22:13:00,45.7,27.0,30.29,NNE,16,1.0,5.0,49,0.00,,,0.00,weatherlink.com 1.10,2013-01-22 04:13:00,
2013-01-21 22:28:00,45.1,27.0,30.29,ENE,61,1.0,4.0,50,0.00,,,0.00,weatherlink.com 1.10,2013-01-22 04:28:00,
2013-01-21 22:43:00,44.7,27.0,30.29,NNE,20,1.0,3.0,50,0.00,,,0.00,weatherlink.com 1.10,2013-01-22 04:43:00,
2013-01-21 22:58:00,44.3,27.0,30.30,NNE,23,1.0,2.0,51,0.00,,,0.00,weatherlink.com 1.10,2013-01-22 04:58:00,
2013-01-21 23:13:00,43.8,27.0,30.29,NE,49,1.0,1.0,51,0.00,,,0.00,weatherlink.com 1.10,2013-01-22 05:13:00,
2013-01-21 23:28:00,43.3,27.0,30.29,North,11,0.0,1.0,53,0.00,,,0.00,weatherlink.com 1.10,2013-01-22 05:28:00,
2013-01-21 23:43:00,43.1,26.0,30.29,NNE,27,0.0,1.0,52,0.00,,,0.00,weatherlink.com 1.10,2013-01-22 05:43:00,
2013-01-21 23:58:00,43.3,27.0,30.29,NE,46,1.0,2.0,52,0.00,,,0.00,weatherlink.com 1.10,2013-01-22 05:58:00,